Weather History for Whiting Fld NAS, FL

Change the Weather History Date:

Saturday, January 4, 2014

  Actual Average Record
Temperature  
Mean Temperature 42 °F -  
Max Temperature 57 °F 59 °F 77 °F (1997)
Min Temperature 28 °F 41 °F 23 °F (2002)
Degree Days  
Heating Degree Days 22    
Moisture  
Dew Point 29 °F    
Average Humidity 61    
Maximum Humidity 74    
Minimum Humidity 48    
Precipitation  
Precipitation 0.00 in - - ()
Sea Level Pressure  
Sea Level Pressure 30.20 in    
Wind  
Wind Speed 8 mph (East)    
Max Wind Speed 12 mph    
Max Gust Speed -    
Visibility 10 miles    
Events      
Averages and records for this station are not official NWS values.
T = Trace of Precipitation, MM = Missing Value Source: NWS Daily Summary

Daily Weather History Graph

Daily Weather History Graph

Search for Another Location

Airport:

Trip Planner

Search our weather history database for the weather conditions in past years. The results will help you decide how hot, cold, wet, or windy it might be!

Date:

Astronomy

Jan. 04, 2014 Rise Set
Actual Time 6:46 AM CST 5:00 PM CST
Civil Twilight 6:19 AM CST 5:26 PM CST
Nautical Twilight 5:49 AM CST 5:56 PM CST
Astronomical Twilight 5:20 AM CST 6:25 PM CST
Moon 9:07 AM CST (1/4) 9:00 PM CST (1/4)
Length of Visible Light 11h 06m
Length of Day
10h 13m
Waxing Crescent, 15% of the Moon is Illuminated
Jan 4
Waxing Crescent
Jan 7
First Quarter
Jan 15
Full
Jan 23
Last Quarter
Jan 30
New

Hourly Weather History & Observations

Time (CST) Temp. Windchill Dew Point Humidity Pressure Visibility Wind Dir Wind Speed Gust Speed Precip Events Conditions
12:56 AM 28.0 °F 21.7 °F 19.0 °F 69% 30.28 in 10.0 mi ENE 5.8 mph - N/A   Unknown
1:56 AM 28.9 °F 21.9 °F 19.0 °F 67% 30.27 in 10.0 mi ENE 6.9 mph - N/A   Unknown
2:36 AM 30.0 °F 21.1 °F 19.0 °F 64% 30.28 in 10.0 mi ENE 10.4 mph - N/A   Overcast
2:56 AM 30.9 °F 21.7 °F 19.0 °F 61% 30.26 in 10.0 mi East 11.5 mph - N/A   Mostly Cloudy
3:06 AM 32.0 °F 23.0 °F 19.0 °F 59% 30.28 in 10.0 mi East 11.5 mph - N/A   Scattered Clouds
3:56 AM 32.0 °F 23.0 °F 19.0 °F 59% 30.25 in 10.0 mi East 11.5 mph - N/A   Unknown
4:56 AM 33.1 °F 24.9 °F 19.9 °F 59% 30.25 in 10.0 mi East 10.4 mph - N/A   Unknown
5:56 AM 34.0 °F 26.0 °F 19.9 °F 56% 30.25 in 10.0 mi East 10.4 mph - N/A   Unknown
6:56 AM 34.0 °F 26.6 °F 19.9 °F 56% 30.26 in 10.0 mi ENE 9.2 mph - N/A   Unknown
7:56 AM 36.0 °F 28.5 °F 21.0 °F 55% 30.29 in 10.0 mi East 10.4 mph - N/A   Unknown
8:56 AM 37.9 °F 30.9 °F 21.9 °F 53% 30.29 in 10.0 mi East 10.4 mph - N/A   Unknown
9:56 AM 45.0 °F 40.1 °F 27.0 °F 49% 30.29 in 10.0 mi ENE 9.2 mph - N/A   Clear
10:56 AM 50.0 °F - 30.9 °F 48% 30.23 in 10.0 mi East 8.1 mph - N/A   Clear
11:56 AM 54.0 °F - 35.1 °F 49% 30.20 in 10.0 mi East 8.1 mph - N/A   Clear
12:56 PM 55.0 °F - 37.9 °F 53% 30.17 in 10.0 mi East 6.9 mph - N/A   Scattered Clouds
1:56 PM 57.0 °F - 39.0 °F 51% 30.15 in 10.0 mi Variable 5.8 mph - N/A   Partly Cloudy
2:56 PM 57.0 °F - 39.0 °F 51% 30.14 in 10.0 mi East 9.2 mph - N/A   Clear
3:56 PM 55.9 °F - 39.9 °F 55% 30.12 in 10.0 mi East 6.9 mph - N/A   Clear
4:56 PM 51.1 °F - 39.9 °F 66% 30.12 in 10.0 mi ENE 6.9 mph - N/A   Clear
5:56 PM 50.0 °F - 41.0 °F 71% 30.14 in 10.0 mi East 9.2 mph - N/A   Overcast
6:56 PM 48.0 °F - 37.9 °F 68% 30.13 in 10.0 mi ENE 6.9 mph - N/A   Overcast
7:56 PM 46.0 °F 41.4 °F 36.0 °F 68% 30.13 in 10.0 mi East 9.2 mph - N/A   Overcast
8:56 PM 44.1 °F 39.0 °F 35.1 °F 71% 30.12 in 10.0 mi ENE 9.2 mph - N/A   Mostly Cloudy
9:56 PM 42.1 °F 39.2 °F 34.0 °F 73% 30.10 in 10.0 mi SSE 4.6 mph - N/A   Mostly Cloudy
10:56 PM 43.0 °F - 35.1 °F 74% 30.06 in 10.0 mi Calm Calm - N/A   Overcast
11:56 PM 43.0 °F 39.5 °F 35.1 °F 74% 30.04 in 10.0 mi ENE 5.8 mph - N/A   Overcast